Location: Colle Santa Colomba
(42.0333°N, 12.5667°E)
Time: 20:03:25
(UTC+00:00)

PAYLOAD B - Pass Details

Date: 25 October 2021
Orbit: 849 x 871 km, 99.1° (Epoch: 05 December)

Event Time Altitude Azimuth Distance (km) Brightness Sun altitude
Rises 16:52:55 0° 163° (SSE) 3,411 7.3 -8.1°
Reaches altitude 10° 16:55:16 10° 163° (SSE) 2,482 6.6 -8.5°
Maximum altitude 17:00:47 88° 74° (ENE) 867 4.3 -9.5°
Drops below altitude 10° 17:06:23 10° 346° (NNW) 2,513 6.8 -10.5°
Sets 17:08:47 0° 347° (NNW) 3,458 7.5 -11.0°
